This is the latest recevied weather packets stored in our database for station/object NQ9F. If no packets are shown the sender has not sent any weather packets the latest 1 day(s).
| Time | Temp. | Humidity | Pressure | Rain* | Wind** | Luminosity | Snow |
|---|---|---|---|---|---|---|---|
| 1778021462 | 23.33° C | 67% | 1005.7 hPa | 0 mm | 2.24 m/s, 348° | 114 W/m² | - |
| 1778021159 | 23.33° C | 68% | 1005.5 hPa | 0 mm | 2.68 m/s, 343° | 102 W/m² | - |
| 1778020857 | 23.89° C | 66% | 1005.4 hPa | 0 mm | 4.92 m/s, 333° | 83 W/m² | - |
| 1778020554 | 23.89° C | 66% | 1005.4 hPa | 0 mm | 4.47 m/s, 333° | 71 W/m² | - |
| 1778020250 | 24.44° C | 65% | 1005.6 hPa | 0 mm | 4.02 m/s, 327° | 96 W/m² | - |
| 1778019946 | 24.44° C | 64% | 1005.4 hPa | 0 mm | 2.68 m/s, 321° | 139 W/m² | - |
| 1778019642 | 24.44° C | 64% | 1005.2 hPa | 0 mm | 3.58 m/s, 349° | 123 W/m² | - |
| 1778019339 | 24.44° C | 64% | 1005.5 hPa | 0 mm | 4.92 m/s, 324° | 111 W/m² | - |
| 1778019036 | 25° C | 64% | 1005.4 hPa | 0 mm | 3.13 m/s, 327° | 136 W/m² | - |
| 1778018733 | 25° C | 63% | 1005.1 hPa | 0 mm | 2.68 m/s, 355° | 168 W/m² | - |
| 1778018431 | 25° C | 63% | 1005.2 hPa | 0 mm | 4.02 m/s, 352° | 201 W/m² | - |
| 1778018129 | 25° C | 64% | 1005.3 hPa | 0 mm | 3.13 m/s, 354° | 288 W/m² | - |
| 1778017826 | 25° C | 62% | 1005.1 hPa | 0 mm | 3.58 m/s, 326° | 309 W/m² | - |
| 1778017524 | 25.56° C | 63% | 1005.2 hPa | 0 mm | 5.81 m/s, 343° | 337 W/m² | - |
| 1778017221 | 25.56° C | 63% | 1005.1 hPa | 0 mm | 4.47 m/s, 358° | 511 W/m² | - |
| 1778016919 | 26.11° C | 64% | 1005 hPa | 0 mm | 4.02 m/s, 0° | 320 W/m² | - |
| 1778016615 | 26.11° C | 64% | 1005.1 hPa | 0 mm | 3.58 m/s, 321° | 305 W/m² | - |
| 1778016311 | 26.11° C | 63% | 1005.4 hPa | 0 mm | 3.58 m/s, 323° | 344 W/m² | - |
| 1778016009 | 26.67° C | 61% | 1005.1 hPa | 0 mm | 5.36 m/s, 321° | 318 W/m² | - |
| 1778015706 | 27.22° C | 58% | 1005 hPa | 0 mm | 3.58 m/s, 353° | 361 W/m² | - |
| 1778015402 | 27.22° C | 55% | 1005.1 hPa | 0 mm | 5.81 m/s, 328° | 814 W/m² | - |
| 1778015099 | 27.78° C | 54% | 1005.2 hPa | 0 mm | 3.13 m/s, 341° | 712 W/m² | - |
| 1778014795 | 27.78° C | 52% | 1005 hPa | 0 mm | 2.24 m/s, 340° | 774 W/m² | - |
| 1778014494 | 27.78° C | 53% | 1005.3 hPa | 0 mm | 3.13 m/s, 356° | 430 W/m² | - |
| 1778014191 | 27.78° C | 50% | 1005.3 hPa | 0 mm | 2.68 m/s, 336° | 469 W/m² | - |
* Rain latest hour (hover to see other rain measurements)
** Current wind speed in m/s (hover to see current wind gust speed)